SCP
0 0 0 0 0 0 0 0 0 0 0 0 0 0 0 0 0 0 0 -0 -0 -0 -0 0 0 0 0 0 0 0 0 0
0 0 0 0 0 0 0 0 0 0 0 0 0 0 0 0 0 0 0 -0 -0 -0 -0 0 0 0 0 0 0 0 0 0
0 0 0 0 0 0 0 0 0 0 0 0 0 0 0 0 0 0 0 0 -0 -0 -0 0 0 0 0 0 0 0 0 0
0 0 0 0 0 0 0 0 0 0 0 0 0 0 0 0 0 0 0 0 0 -0 0 0 0 0 0 0 -0 -0 -0 0
0 0 0 0 0 0 0 0 0 0 0 0 0 0 0 0 0 0 0 0 0 0 0 0 0 0 0 0 -0 -0 -0 -0
0 0 0 0 0 0 0 0 0 0 0 0 0 0 0 0 0 0 0 0 0 0 0 0 0 0 0 0 0 -0 -0 0
0 0 0 0 0 0 0 0 0 0 0 0 0 0 0 0 0 0 0 0 0 0 0 0 0 0 0 0 0 0 -0 -0
0 0 0 0 0 0 0 0 0 0 0 0 0 0 0 0 0 0 0 0 0 0 0 0 0 0 0 0 0 0 0 -0
0 0 0 0 0 0 0 0 0 0 0 0 0 0 0 0 0 0 0 0 0 0 0 0 0 0 0 0 0 0 0 0
0 0 0 0 0 0 0 0 0 0 0 0 0 0 0 0 0 0 0 0 0 0 0 0 0 0 0 0 0 0 0 -0
0 0 0 0 0 0 0 0 0 0 0 0 0 0 0 0 0 0 0 0 0 0 0 0 0 0 0 0 -0 0 0 -0
0 0 0 0 0 0 0 0 0 0 0 0 0 0 0 0 0 0 0 0 0 0 0 0 0 0 0 0 -0 0 0 0
0 0 0 0 0 0 0 0 0 0 0 0 0 0 0 0 0 0 0 0 0 0 0 0 0 0 0 0 -0 0 0 0
0 0 0 0 0 0 0 0 0 0 0 0 0 0 0 0 0 0 0 0 0 0 0 0 0 0 0 0 0 0 0 0
-0 -0 0 0 0 0 0 0 0 0 0 0 0 0 0 0 0 0 0 0 0 0 0 0 0 0 0 0 -0 0 0 0
-0 0 0 0 0 0 0 0 0 0 0 0 0 0 0 0 0 0 0 0 0 0 0 0 0 0 0 0 0 0 0 0
0 0 0 0 0 0 0 0 0 0 0 0 0 0 0 0 0 0 0 0 0 0 0 0 0 0 0 0 0 0 0 -0
0 0 0 0 0 0 0 0 0 0 0 0 0 0 0 0 0 0 0 0 0 0 0 0 0 0 0 0 0 0 0 -0
0 0 0 0 0 0 0 0 0 0 0 0 0 0 0 0 0 0 0 0 0 0 0 0 0 0 0 0 0 0 -0 -0
0 0 0 0 0 0 0 0 0 0 0 0 0 0 0 0 0 0 0 0 0 0 0 0 0 0 0 0 0 0 -0 -0
Wind_Speed_500mb
58 63 55 49 47 48 43 36 31 26 22 20 18 15 12 11 12 18 21 27 31 33 35 37 38 40 42 46 47 46 49 50
53 62 58 53 52 51 47 42 36 30 25 21 20 17 14 13 13 18 20 24 27 30 31 34 36 39 41 45 46 48 48 47
46 60 63 60 58 56 51 44 38 32 28 25 23 22 18 15 15 17 19 23 26 26 28 32 34 35 40 44 45 49 49 49
43 61 66 66 63 61 57 51 46 40 34 30 28 26 22 19 17 17 19 22 26 25 26 28 31 32 39 40 42 47 49 48
42 55 67 69 68 66 63 58 53 48 42 36 32 30 26 23 22 20 21 22 24 25 25 26 28 30 36 36 38 43 47 47
44 51 64 73 75 71 69 66 59 53 48 42 37 35 32 27 26 24 23 24 24 24 23 25 26 27 32 31 33 38 42 42
42 51 57 69 78 76 75 72 65 60 54 49 46 42 39 34 31 29 27 26 25 24 23 23 25 25 29 27 28 32 36 38
30 44 54 60 71 80 78 76 72 64 59 55 51 47 44 39 37 34 32 29 27 25 23 22 23 23 25 24 23 28 31 34
26 29 41 51 61 72 79 81 78 70 66 62 58 52 49 46 42 40 37 33 29 26 25 22 21 21 22 21 19 24 27 29
29 17 24 38 48 64 78 85 81 77 74 69 63 56 54 52 47 44 42 37 33 29 26 24 21 21 20 19 16 20 24 25
26 21 20 28 39 52 67 81 84 79 79 72 64 63 59 55 53 48 45 40 36 33 29 26 22 21 19 17 14 15 20 23
28 25 19 20 31 44 57 69 70 79 84 78 71 69 62 59 57 53 51 46 41 36 33 29 25 22 21 17 16 13 18 20
35 27 24 21 25 37 49 54 64 67 82 79 75 74 68 66 62 60 56 51 47 42 38 33 29 24 23 20 18 14 16 17
50 32 25 23 24 33 36 49 61 62 79 84 82 79 74 73 70 68 63 59 54 49 43 37 32 28 24 23 19 17 17 16
48 41 27 23 22 24 34 43 48 62 71 82 87 85 79 76 75 73 71 67 62 56 49 43 37 33 28 25 22 20 18 17
47 44 36 26 23 21 29 37 43 52 60 80 87 86 86 82 81 80 74 67 62 55 48 46 40 34 30 27 24 22 21 19
48 47 43 38 29 25 25 31 41 52 58 66 88 95 90 88 86 83 76 69 64 58 50 45 38 38 37 35 31 27 25 24
48 49 47 43 39 32 28 32 38 49 56 65 75 92 97 95 93 91 84 80 74 66 60 56 48 48 44 42 38 35 33 30
49 49 46 43 36 34 35 36 41 44 53 60 71 82 94 99 98 94 92 90 88 81 74 66 60 56 51 49 49 49 44 39
57 54 50 48 40 35 41 45 46 48 53 59 66 77 89 96 100 99 96 96 93 86 82 75 69 64 59 58 60 54 46 44
Wind_Direction_500mb
205 209 210 209 206 204 203 205 203 200 196 188 174 164 150 126 105 89 77 72 70 65 62 60 59 59 58 58 57 53 54 52
208 207 211 210 209 207 205 206 206 204 200 194 184 175 167 147 130 109 97 88 78 73 70 69 65 64 62 61 60 56 55 54
219 212 212 211 210 210 210 210 209 210 208 201 193 186 179 164 145 126 112 102 93 84 80 77 73 70 67 62 60 59 56 55
226 219 217 215 213 212 211 210 210 211 209 205 200 195 186 173 161 144 130 119 107 98 92 85 80 74 71 65 63 61 58 56
238 226 221 219 218 216 214 213 212 210 210 207 203 199 193 185 172 160 147 133 121 113 104 95 86 80 74 68 66 65 62 57
249 235 226 222 220 219 218 215 213 212 211 208 205 202 198 193 182 172 162 148 137 125 117 107 96 87 80 73 69 68 66 61
259 246 236 228 225 221 219 218 215 214 213 210 207 203 201 197 191 182 174 163 152 141 132 122 110 98 88 78 73 71 70 66
281 260 251 239 231 226 223 219 217 215 214 214 212 207 202 200 196 190 183 175 164 157 148 137 123 111 96 86 79 75 73 72
322 277 259 250 239 232 226 222 219 217 217 217 215 209 206 204 198 196 190 182 175 170 163 152 139 126 109 98 86 81 77 75
346 311 273 259 247 234 227 223 220 220 220 219 216 214 211 209 203 200 196 189 183 180 178 166 155 143 124 111 99 89 85 80
0 340 295 269 251 238 231 225 221 226 225 222 222 218 215 212 207 204 199 197 192 189 186 179 170 156 141 129 117 105 96 91
10 356 341 293 263 248 236 229 223 228 227 223 226 221 217 215 210 207 203 200 198 196 194 189 180 170 158 151 135 125 108 101
7 357 340 313 278 256 247 232 225 229 229 226 229 223 218 216 212 209 207 205 203 203 200 195 189 183 168 164 152 150 127 117
8 359 348 327 298 271 259 244 236 228 225 224 230 226 222 218 213 213 209 208 207 207 206 202 196 191 183 175 167 166 149 137
354 357 342 322 315 291 265 251 244 235 232 227 225 227 224 220 218 217 215 212 210 209 208 206 202 199 195 186 182 178 168 159
334 337 338 313 295 286 271 255 245 237 236 229 225 227 227 225 223 220 221 222 219 214 212 212 209 204 204 200 193 192 184 180
317 321 323 315 294 273 277 261 248 240 236 232 223 226 229 227 225 223 224 224 222 220 218 216 212 213 212 214 207 203 201 193
305 306 313 312 296 277 267 262 250 244 241 235 230 227 229 227 226 224 221 220 220 220 217 217 215 219 216 217 217 213 214 207
292 295 297 306 306 276 270 261 251 247 245 242 238 230 228 232 230 228 225 223 219 216 216 216 217 220 219 221 222 219 216 214
282 284 290 290 294 294 270 268 253 246 246 242 237 236 231 231 232 231 229 228 227 223 219 217 218 222 224 224 229 226 220 222
Wind_Speed_850mb
58 63 55 49 47 48 43 36 31 26 22 20 18 15 12 11 12 18 21 27 31 33 35 37 38 40 42 46 47 46 49 50
53 62 58 53 52 51 47 42 36 30 25 21 20 17 14 13 13 18 20 24 27 30 31 34 36 39 41 45 46 48 48 47
46 60 63 60 58 56 51 44 38 32 28 25 23 22 18 15 15 17 19 23 26 26 28 32 34 35 40 44 45 49 49 49
43 61 66 66 63 61 57 51 46 40 34 30 28 26 22 19 17 17 19 22 26 25 26 28 31 32 39 40 42 47 49 48
42 55 67 69 68 66 63 58 53 48 42 36 32 30 26 23 22 20 21 22 24 25 25 26 28 30 36 36 38 43 47 47
44 51 64 73 75 71 69 66 59 53 48 42 37 35 32 27 26 24 23 24 24 24 23 25 26 27 32 31 33 38 42 42
42 51 57 69 78 76 75 72 65 60 54 49 46 42 39 34 31 29 27 26 25 24 23 23 25 25 29 27 28 32 36 38
30 44 54 60 71 80 78 76 72 64 59 55 51 47 44 39 37 34 32 29 27 25 23 22 23 23 25 24 23 28 31 34
26 29 41 51 61 72 79 81 78 70 66 62 58 52 49 46 42 40 37 33 29 26 25 22 21 21 22 21 19 24 27 29
29 17 24 38 48 64 78 85 81 77 74 69 63 56 54 52 47 44 42 37 33 29 26 24 21 21 20 19 16 20 24 25
26 21 20 28 39 52 67 81 84 79 79 72 64 63 59 55 53 48 45 40 36 33 29 26 22 21 19 17 14 15 20 23
28 25 19 20 31 44 57 69 70 79 84 78 71 69 62 59 57 53 51 46 41 36 33 29 25 22 21 17 16 13 18 20
35 27 24 21 25 37 49 54 64 67 82 79 75 74 68 66 62 60 56 51 47 42 38 33 29 24 23 20 18 14 16 17
50 32 25 23 24 33 36 49 61 62 79 84 82 79 74 73 70 68 63 59 54 49 43 37 32 28 24 23 19 17 17 16
48 41 27 23 22 24 34 43 48 62 71 82 87 85 79 76 75 73 71 67 62 56 49 43 37 33 28 25 22 20 18 17
47 44 36 26 23 21 29 37 43 52 60 80 87 86 86 82 81 80 74 67 62 55 48 46 40 34 30 27 24 22 21 19
48 47 43 38 29 25 25 31 41 52 58 66 88 95 90 88 86 83 76 69 64 58 50 45 38 38 37 35 31 27 25 24
48 49 47 43 39 32 28 32 38 49 56 65 75 92 97 95 93 91 84 80 74 66 60 56 48 48 44 42 38 35 33 30
49 49 46 43 36 34 35 36 41 44 53 60 71 82 94 99 98 94 92 90 88 81 74 66 60 56 51 49 49 49 44 39
57 54 50 48 40 35 41 45 46 48 53 59 66 77 89 96 100 99 96 96 93 86 82 75 69 64 59 58 60 54 46 44
Wind_Direction_850mb
205 209 210 209 206 204 203 205 203 200 196 188 174 164 150 126 105 89 77 72 70 65 62 60 59 59 58 58 57 53 54 52
208 207 211 210 209 207 205 206 206 204 200 194 184 175 167 147 130 109 97 88 78 73 70 69 65 64 62 61 60 56 55 54
219 212 212 211 210 210 210 210 209 210 208 201 193 186 179 164 145 126 112 102 93 84 80 77 73 70 67 62 60 59 56 55
226 219 217 215 213 212 211 210 210 211 209 205 200 195 186 173 161 144 130 119 107 98 92 85 80 74 71 65 63 61 58 56
238 226 221 219 218 216 214 213 212 210 210 207 203 199 193 185 172 160 147 133 121 113 104 95 86 80 74 68 66 65 62 57
249 235 226 222 220 219 218 215 213 212 211 208 205 202 198 193 182 172 162 148 137 125 117 107 96 87 80 73 69 68 66 61
259 246 236 228 225 221 219 218 215 214 213 210 207 203 201 197 191 182 174 163 152 141 132 122 110 98 88 78 73 71 70 66
281 260 251 239 231 226 223 219 217 215 214 214 212 207 202 200 196 190 183 175 164 157 148 137 123 111 96 86 79 75 73 72
322 277 259 250 239 232 226 222 219 217 217 217 215 209 206 204 198 196 190 182 175 170 163 152 139 126 109 98 86 81 77 75
346 311 273 259 247 234 227 223 220 220 220 219 216 214 211 209 203 200 196 189 183 180 178 166 155 143 124 111 99 89 85 80
0 340 295 269 251 238 231 225 221 226 225 222 222 218 215 212 207 204 199 197 192 189 186 179 170 156 141 129 117 105 96 91
10 356 341 293 263 248 236 229 223 228 227 223 226 221 217 215 210 207 203 200 198 196 194 189 180 170 158 151 135 125 108 101
7 357 340 313 278 256 247 232 225 229 229 226 229 223 218 216 212 209 207 205 203 203 200 195 189 183 168 164 152 150 127 117
8 359 348 327 298 271 259 244 236 228 225 224 230 226 222 218 213 213 209 208 207 207 206 202 196 191 183 175 167 166 149 137
354 357 342 322 315 291 265 251 244 235 232 227 225 227 224 220 218 217 215 212 210 209 208 206 202 199 195 186 182 178 168 159
334 337 338 313 295 286 271 255 245 237 236 229 225 227 227 225 223 220 221 222 219 214 212 212 209 204 204 200 193 192 184 180
317 321 323 315 294 273 277 261 248 240 236 232 223 226 229 227 225 223 224 224 222 220 218 216 212 213 212 214 207 203 201 193
305 306 313 312 296 277 267 262 250 244 241 235 230 227 229 227 226 224 221 220 220 220 217 217 215 219 216 217 217 213 214 207
292 295 297 306 306 276 270 261 251 247 245 242 238 230 228 232 230 228 225 223 219 216 216 216 217 220 219 221 222 219 216 214
282 284 290 290 294 294 270 268 253 246 246 242 237 236 231 231 232 231 229 228 227 223 219 217 218 222 224 224 229 226 220 222